sat.trackr.live / text

‹ back to catalog

STARLINK-2627

NORAD 48687 · 2021-044BB

PAYLOAD ACTIVE UNKNOWN

§ Identity

Operator
Country
US
Launch date
2021-05-26
Launch site
AFETR
Launch vehicle
Mass (kg)
RCS (m²)

Purposes: comms

External: N2YO · Heavens-Above · Gunter

§ Orbital elements

Epoch: 2026-05-25T02:09:07.683264Z

Period
94.01 min
Inclination
53.1590°
Eccentricity
0.0001121
Mean motion
15.31729330 rev/d
Perigee alt
469.9 km
Apogee alt
471.4 km
Semi-major
6,848.8 km
B*
1.7053e-4
RAAN
69.6428°
Arg perigee
95.6543°
Mean anomaly
264.4586°
Rev number
27,620

§ Raw data

STARLINK-26271 48687U 21044BB  26145.08967226  .00004935  00000+0  17053-3 0  99912 48687  53.1590  69.6428 0001121  95.6543 264.4586 15.31729330276206

JSON: /api/v1/satellites/48687 · /tle

For live sub-satellite position, see the globe view (requires WebGL).

§ Visibility from observer

Set your observer location to see the next 7 days of passes ≥ 10°. The values pass through the URL so the page stays shareable.

No JS? Fill the form by hand. The geolocation button needs JavaScript.